Regional Weather Roundup
Issued by NWS

Home | Current Version | Previous Version | Graphics & Text | Print | Product List | Glossary On
Versions: 1 2 3 4 5 6 7 8 9 10 11 12 13 14 15 16 17 18 19 20 21 22 23 24 25 26 27 28 29 30 31 32 33 34 35 36 37 38 39 40 41 42 43 44 45 46 47 48 49 50
000
ASUS44 KMEG 300600
RWRTN
TENNESSEE HOURLY STATE WEATHER ROUNDUP
NATIONAL WEATHER SERVICE MEMPHIS TN
100 AM CDT TUE AUG 30 2016

TNZ002-004-019-021-049-052-054-088>092-300700-
WEST TENNESSEE

CITY           SKY/WX    TMP DP  RH WIND       PRES   REMARKS
MEMPHIS INTL   PTCLDY    84  73  69 E9        30.06F HX  90
NWS MEMPHIS      N/A     79 N/A N/A MISG        N/A
JACKSON        CLEAR     75  75 100 CALM      30.08F FOG
DYERSBURG      CLEAR     77  73  88 MISG      30.08S
UNION CITY     CLEAR     73  73 100 CALM      30.08S
PARIS          CLEAR     75  73  94 NE3       30.10F
LEXINGTON      CLEAR     73  73 100 CALM      30.08F
$$

TNZ008-025-027-028-033-062-065-066-300700-
NORTH MIDDLE TENNESSEE

CITY           SKY/WX    TMP DP  RH WIND       PRES   REMARKS
NASHVILLE      CLEAR     78  72  81 N6        30.10F
CLARKSVILLE    CLEAR     75  71  87 NE3       30.11S
COOKEVILLE     CLEAR     72  72 100 CALM      30.11S
CROSSVILLE     CLEAR     71  69  93 CALM      30.17F
$$

TNZ061-075-076-078-094-096-097-300700-
SOUTH MIDDLE TENNESSEE

CITY           SKY/WX    TMP DP  RH WIND       PRES   REMARKS
TULLAHOMA      CLEAR     70  66  88 CALM      30.12F
WINCHESTER     CLEAR     70  70 100 CALM      30.10F
MCMINNVILLE    CLEAR     73  73 100 N3G16     30.12S
COLUMBIA       CLEAR    N/A N/A N/A CALM      30.08F
SHELBYVILLE    CLEAR     72  72 100 CALM      30.11S
$$

TNZ017-018-042-046-047-300700-
NORTHEAST TENNESSEE

CITY           SKY/WX    TMP DP  RH WIND       PRES   REMARKS
TRI CITIES     CLEAR     69  66  90 CALM      30.16S
$$

TNZ012-013-036-069-073-074-300700-
CENTRAL EAST TENNESSEE

CITY           SKY/WX    TMP DP  RH WIND       PRES   REMARKS
KNOXVILLE      CLEAR     74  65  73 SE6       30.10F
GATLINBURG     CLEAR     68  64  88 CALM      30.12S
$$

TNZ083-085-099-300700-
SOUTHEAST TENNESSEE

CITY           SKY/WX    TMP DP  RH WIND       PRES   REMARKS
CHATTANOOGA    CLEAR     73  68  84 CALM      30.10S
$$

SKY/WX REPORTED AS FAIR MEANS FEW OR NO CLOUDS BELOW
12 THOUSAND FEET.





USA.gov is the U.S. government's official web portal to all federal, state and local government web resources and services.